Regional Weather Roundup
Issued by NWS

Home | Current Version | Previous Version | Graphics & Text | Print | Product List | Glossary Off
Versions: 1 2 3 4 5 6 7 8 9 10 11 12 13 14 15 16 17 18 19 20 21 22 23 24 25 26 27 28 29 30 31 32 33 34 35 36 37 38 39 40 41 42 43 44 45 46 47 48 49 50

000
ASUS43 KLSX 250359
RWRMO

WEATHER SUMMARY FOR MISSOURI
NATIONAL WEATHER SERVICE SPRINGFIELD MO
1100 PM CDT SUN MAY 24 2015

NOTE: "FAIR" INDICATES FEW OR NO CLOUDS BELOW 12,000 FEET WITH NO
       SIGNIFICANT WEATHER AND/OR OBSTRUCTIONS TO VISIBILITY.
       CURRENT SKY AND/OR WEATHER CONDITIONS ARE NOT AVAILABLE FOR
       CHILLICOTHE AND FARMINGTON.

MOZ001>031-035>038-043-044-053-054-250500-
...NORTHERN AND WESTERN MISSOURI...

CITY           SKY/WX    TMP DP  RH WIND       PRES   REMARKS
KANSAS CTY INT CLOUDY    63  62  97 SW7       29.84R
KANSAS C DTWN  CLOUDY    65  61  87 SW3       29.82R
LEE`S SUMMIT   CLOUDY    64  62  93 S6        29.84R
ST JOSEPH      CLOUDY    64  62  93 S5        29.82S
KIRKSVILLE     LGT RAIN  64  64 100 CALM      29.84S

$$
MOZ066>068-077>081-088>096-101>105-250500-
...SOUTHWEST MISSOURI...

CITY           SKY/WX    TMP DP  RH WIND       PRES   REMARKS
SPRINGFIELD    MOCLDY    63  60  90 S9        29.88R
JOPLIN         RAIN      61  61 100 W7        29.90R FOG

$$
MOZ032>034-039>042-045>050-055>058-069>072-250500-
...CENTRAL MISSOURI...

CITY           SKY/WX    TMP DP  RH WIND       PRES   REMARKS
COLUMBIA       LGT RAIN  67  67 100 CALM      29.82F
JEFFERSON CITY CLOUDY    67  66  97 E7        29.81F
ROLLA          CLOUDY    67  64  90 S17G28    29.84F
SEDALIA        CLOUDY    66  63  90 S3        29.84F
OSAGE BEACH    CLOUDY    64  63  94 W5        29.84R

$$
MOZ051-052-059>065-250500-
...EAST CENTRAL MISSOURI...

CITY           SKY/WX    TMP DP  RH WIND       PRES   REMARKS
ST LOUIS INTL  LGT RAIN  71  66  84 SE14      29.89F
SPIRIT OF STL  CLOUDY    69  67  93 SE7       29.86F
ST CHARLES     CLOUDY    69  66  90 SE12      29.87F

$$
MOZ072>076-082>087-097>100-106>115-250500-
...SOUTH CENTRAL AND SOUTHEAST MISSOURI...

CITY           SKY/WX    TMP DP  RH WIND       PRES   REMARKS
CAPE GIRARDEAU LGT RAIN  68  65  90 S12       29.99F
FARMINGTON     CLOUDY    66  64  94 S14G20    29.96F
POPLAR BLUFF   CLOUDY    69  65  86 S12       29.95S
WEST PLAINS    CLOUDY    67  64  90 S12G22    29.94R

$$


USA.gov is the U.S. government's official web portal to all federal, state and local government web resources and services.